This demonstration page uses our WeatherBlox Daily Observations layout. Learn more.

Left ArrowRight Arrow

34.74481, -87.66753

Hourly Observations for February 21, 2018

Temp ( °F °C ) Dew Point ( °F °C ) Humidity (%) Winds ( mph kmh ) Pressure ( in mb ) Visibility ( mi km ) Precip ( " mm )
12:53 am 00:53 Clear 70 21.1 61 16.1 73 73 S 10 17 30.21 1023 10 16 0.00 0.00
1:53 am 01:53 Clear 69 20.6 61 16.1 76 76 S 13 20 30.20 1023 10 16 0.00 0.00
2:53 am 02:53 Mostly Cloudy 69 20.6 62 16.7 78 78 S 10 17 30.22 1023 10 16 0.00 0.00
3:04 am 03:04 Mostly Cloudy 69 20.6 63 17.2 81 81 S 14 22 30.21 1023 10 16 0.00 0.00
3:53 am 03:53 Cloudy 70 21.1 63 17.2 79 79 S 14 22 30.22 1024 10 16 0.00 0.00
4:53 am 04:53 Mostly Cloudy 70 21.1 63 17.2 79 79 S 13 20 30.23 1024 10 16 0.00 0.00
5:53 am 05:53 Cloudy 70 21.1 64 17.8 82 82 S 14 22 30.24 1024 10 16 0.00 0.00
6:15 am 06:15 Mostly Cloudy 69 20.6 64 17.8 84 84 S 14 22 30.21 1023 10 16 0.00 0.00
6:53 am 06:53 Mostly Cloudy 69 20.6 64 17.8 84 84 S 10 17 30.25 1025 10 16 0.00 0.00
7:25 am 07:25 Mostly Cloudy 70 21.1 64 17.8 82 82 SSW 10 17 30.24 1024 10 16 0.00 0.00
7:53 am 07:53 Partly Cloudy 71 21.7 64 17.8 79 79 S 12 19 30.26 1025 10 16 0.00 0.00
8:53 am 08:53 Partly Cloudy 74 23.3 64 17.8 71 71 S 22 35 30.27 1025 10 16 0.00 0.00
9:53 am 09:53 Sunny 76 24.4 64 17.8 67 67 S 20 31 30.27 1025 10 16 0.00 0.00
10:20 am 10:20 Mostly Cloudy 76 24.4 63 17.2 64 64 S 21 33 30.27 1025 10 16 0.00 0.00
10:36 am 10:36 Mostly Cloudy 76 24.4 63 17.2 64 64 SSW 20 31 30.27 1025 10 16 0.00 0.00
10:53 am 10:53 Mostly Sunny 78 25.6 64 17.8 62 62 SSW 18 30 30.27 1025 10 16 0.00 0.00
11:53 am 11:53 Partly Cloudy 80 26.7 63 17.2 56 56 S 15 24 30.24 1024 10 16 0.00 0.00
12:53 pm 12:53 Cloudy 69 20.6 58 14.4 68 68 N 12 19 30.25 1024 10 16 0.00 0.00
1:53 pm 13:53 Cloudy 65 18.3 57 13.9 76 76 NNE 14 22 30.24 1024 10 16 0.00 0.00
2:53 pm 14:53 Mostly Sunny 69 20.6 58 14.4 68 68 NE 12 19 30.23 1024 10 16 0.00 0.00
3:53 pm 15:53 Sunny 69 20.6 57 13.9 66 66 NNE 9 15 30.22 1023 10 16 0.00 0.00
4:53 pm 16:53 Sunny 67 19.4 57 13.9 71 71 N 5 7 30.23 1024 10 16 0.00 0.00
5:53 pm 17:53 Mostly Cloudy 65 18.3 56 13.3 73 73 N 9 15 30.25 1025 10 16 0.00 0.00
6:53 pm 18:53 Cloudy with Nearby Thunderstorms 61 16.1 55 12.8 81 81 VRB 7 11 30.28 1025 10 16 0.00 0.03
7:13 pm 19:13 Cloudy with Light Rain 61 16.1 56 13.3 84 84 NNE 9 15 30.27 1025 10 16 0.00 0.03
7:53 pm 19:53 Cloudy with Light Rain 60 15.6 55 12.8 84 84 NE 10 17 30.27 1025 10 16 0.02 0.51
8:53 pm 20:53 Cloudy with Light Rain 60 15.6 55 12.8 84 84 NE 9 15 30.26 1025 10 16 0.01 0.25
9:53 pm 21:53 Mostly Cloudy 59 15 56 13.3 90 90 E 5 7 30.26 1025 10 16 0.06 1.52
10:06 pm 22:06 Mostly Cloudy 59 15 56 13.3 90 90 E 6 9 30.27 1025 10 16 0.00 0.00
10:53 pm 22:53 Mostly Clear 59 15 56 13.3 90 90 E 3 6 30.25 1025 10 16 0.00 0.00
11:53 pm 23:53 Clear 58 14.4 56 13.3 93 93 Calm 30.23 1024 10 16 0.00 0.00

Powered by AerisWeather